Weather Service Report


772 
ASUS42 KCAE 270510
RWRCAE
REGIONAL WEATHER ROUNDUP
NATIONAL WEATHER SERVICE COLUMBIA SC
1200 AM EST TUE JAN 27 2015

NOTE: "FAIR" INDICATES FEW OR NO CLOUDS BELOW 12,000 FEET WITH NO
SIGNIFICANT WEATHER AND/OR OBSTRUCTIONS TO VISIBILITY.

NOT ALL STATIONS ARE QUALITY CONTROLLED BY THE NATIONAL 
WEATHER SERVICE. USE DATA WITH CAUTION...ESPECIALLY 
DEWPOINT OBSERVATIONS.

SCZ001>056-GAZ040-063>065-077-270600-
...UPSTATE SOUTH CAROLINA...
  
CITY           SKY/WX    TMP DP  RH WIND       PRES   REMARKS
ANDERSON       CLEAR     34  24  67 SW5       29.83F WCI  30          
LIBERTY        CLEAR     28  23  80 MISG      29.81F                  
SPARTANBURG    MOCLDY    37  23  56 NW13G20   29.80R WCI  29          
CLEMSON        CLEAR     35  22  58 W8        29.83F WCI  29          
GREENVILLE     CLEAR     34  22  61 NW7       29.81F WCI  28          
GREENWOOD      MOCLDY    37  26  64 CALM      29.84F                  
GREER          PTCLDY    34  23  64 N8        29.79F WCI  27          
ROCK HILL      CLOUDY    37  23  56 NW7       29.78S WCI  32          
CHESTER        CLOUDY    41  23  48 NW7       29.79F                  
LAURENS        CLOUDY    37  30  75 CALM      29.81F                  


...CENTRAL SOUTH CAROLINA...
  
CITY           SKY/WX    TMP DP  RH WIND       PRES   REMARKS
COLUMBIA APT   CLOUDY    44  24  45 W9        29.81S                  
COLUMBIA OWENS MOCLDY    43  23  45 NW13G20   29.81S                  
DARLINGTON     CLOUDY    43  28  56 NW13      29.75R                  
FLORENCE       CLOUDY    47  30  51 NW16G22   29.73S                  
MCENTIRE ANGB  MOCLDY    41  25  52 NW15      29.79S                  
ORANGEBURG     MOCLDY    41  29  62 W12       29.81S                  
SUMTER SHAW    CLOUDY    42  26  54 W12       29.76S                  
NEWBERRY       CLOUDY    37  23  56 NW5       29.84F WCI  34          
AIKEN          FAIR      37  30  75 W9        29.86F WCI  31          
BARNWELL       CLOUDY    39  32  75 W6        29.85S WCI  35          
CAMDEN         FAIR      39  27  60 NW12      29.78S WCI  32          
LANCASTER      CLOUDY    39  25  56 W7        29.78F WCI  34          
WINNSBORO      CLOUDY    37  28  70 W7        29.79S WCI  32          


...EASTERN AND COASTAL SOUTH CAROLINA...
  
CITY           SKY/WX    TMP DP  RH WIND       PRES   REMARKS
MYRTLE BEACH   CLOUDY    46  41  81 N6        29.73S                  
N MYRTLE BCH   RAIN      46  42  86 W9G18     29.70R FOG              
CONWAY         CLOUDY    45  45 100 CALM      29.72S                  
MARION         CLOUDY    45  36  70 NW12G17   29.72S                  
HARTSVILLE     FAIR      43  23  45 W3        29.75S                  
FLORENCE       CLOUDY    47  30  51 NW16G22   29.73S                  
DARLINGTON     CLOUDY    43  28  56 NW13      29.75R                  
CHARLESTON APT PTCLDY    42  31  64 W14G21    29.80R                  
MOUNT PLEASANT MIX PCPN N/A N/A N/A W12G18    29.78S                  
WALTERBORO     PTCLDY    43  30  61 W10G18    29.83F                  
BEAUFORT       PTCLDY    41  30  65 W13G21    29.84S                  


...EASTERN GEORGIA...
  
CITY           SKY/WX    TMP DP  RH WIND       PRES   REMARKS
AUGUSTA BUSH F CLOUDY    40  26  57 NW9       29.87R WCI  34          
AUGUSTA DANIEL CLOUDY    40  27  59 VRB7      29.86S                  
THOMSON        PTCLDY    38  31  73 W8        29.91F WCI  32          
WASHINGTON     FAIR      37  32  81 W9        29.86F WCI  31          
CLAXTON        FAIR      39  32  75 W8        29.89F WCI  34          
SYLVANIA       MOCLDY    39  32  75 NW9       29.87S WCI  33          
STATESBORO     MOCLDY    40  32  73 NW8       29.88S WCI  34          
SAVANNAH       PTCLDY    40  29  64 W12       29.88S WCI  33          


...SOUTHERN NORTH CAROLINA...
  
CITY           SKY/WX    TMP DP  RH WIND       PRES   REMARKS
CHARLOTTE      CLOUDY    37  22  54 NW10      29.77S WCI  30          
MONROE         CLOUDY    39  24  55 NW9       29.75S WCI  33          
WADESBORO      CLOUDY    41  28  60 NW8       29.75R                  
ROCKINGHAM       N/A     41  30  65 NW9G20    29.72S                  
RUTHERFORDTON  PTCLDY    33  22  63 CALM      29.80S                  
ASHEVILLE      PTCLDY    28  20  71 N14G21    29.78F WCI  17          

$$

Return to Home page


Western Regional Climate Center, wrcc@dri.edu